Content
SEND FEEDBACK

Daily
Averages
Monthly
Summary
France

LE HAVRE, FRANCE


Home > Europe > France
Elevation: 338 feet     Latitude: 49 31N     Longitude: 000 04E

WEATHER
 
SELECT A DAY
Number of Records: 183,666;   Date Range: 3/4/97 - 10/21/14
 
SHARE

PRINT THIS DATA

[ ← Previous Day ]
WEATHER ALMANAC - APRIL 3, 2013
[ Next Day → ]
[ °C ]   °F
Weather ElementAverageHighLow
Temperature37.7 °F42.8 °F (1:30 pm)32 °F (8:00 am)
Dewpoint28.9 °F32 °F (8:00 pm)26.6 °F (6:30 am)
Humidity71.5 %81 % (1:30 am)57 % (1:00 pm)
Barometer29.90 in29.95 in (1:30 am)29.86 in (6:30 pm)
Wind Speed14.2 mph19.6 mph (11:00 am)
Weather ElementAverage
Visibility5.5 mi
Wind DirectionNE (42.8 °)

Weather ElementTotal
Precipitation---
Heating Degree Days27.6 (Base 65)
Averaged from 47 records on April 3, 2013
WEATHER CONDITIONS BREAKOUT
WIND DIRECTION BREAKOUT
WEATHER BY HOUR - APRIL 3, 2013
[ °C ]   °F
Local TimeTemperatureDewpointHumidityBarometerVisibilityWind DirectionWind SpeedGust SpeedPrecipitationEventsConditions
12:30 AM35.6 °F28.4 °F75 %29.92 in6.2 miNE (50°)10.4 mph
1:00 AM35.6 °F28.4 °F75 %29.92 in6.2 miNE (50°)10.4 mph
1:30 AM35.6 °F30.2 °F81 %29.95 in6.2 miNE (50°)10.4 mph
2:00 AM35.6 °F30.2 °F81 %29.92 in6.2 miNE (50°)10.4 mph
2:30 AM35.6 °F30.2 °F81 %29.92 in6.2 miNE (50°)10.4 mph
3:00 AM35.6 °F30.2 °F81 %29.92 in6.2 miNE (50°)10.4 mph
3:30 AM35.6 °F30.2 °F81 %29.92 in6.2 miNE (40°)11.5 mph
4:00 AM35.6 °F30.2 °F81 %29.92 in6.2 miNE (50°)10.4 mph
4:30 AM35.6 °F30.2 °F81 %29.92 in6.2 miNE (40°)10.4 mph
5:00 AM35.6 °F28.4 °F75 %29.92 in6.2 miNE (40°)11.5 mph
5:30 AM33.8 °F28.4 °F81 %29.92 in6.2 miNE (40°)11.5 mph
6:00 AM33.8 °F28.4 °F81 %29.92 in6.2 miNE (40°)11.5 mph
6:30 AM33.8 °F26.6 °F75 %29.92 in6.2 miNE (40°)10.4 mph
7:00 AM33.8 °F26.6 °F75 %29.92 in6.2 miNE (50°)8.1 mph
7:30 AM33.8 °F26.6 °F75 %29.92 in6.2 miNE (50°)8.1 mph
8:00 AM32.0 °F26.6 °F80 %29.92 in6.2 miNE (40°)6.9 mph
8:30 AM33.8 °F28.4 °F81 %29.92 in6.2 miNE (50°)6.9 mph
9:00 AM35.6 °F28.4 °F75 %29.92 in6.2 miNE (40°)10.4 mph
9:30 AM37.4 °F28.4 °F70 %29.92 in5.6 miNE (40°)12.7 mph
10:00 AM37.4 °F26.6 °F65 %29.92 in5.6 miNE (40°)15.0 mph
10:30 AM39.2 °F26.6 °F61 %29.92 in6.2 miNE (40°)16.1 mph
11:00 AM39.2 °F26.6 °F61 %29.92 in6.2 miNE (40°)19.6 mphPartly Cloudy
11:30 AM39.2 °F26.6 °F61 %29.92 in6.2 miNE (50°)18.4 mphPartly Cloudy
12:00 PM39.2 °F26.6 °F61 %29.92 in5.6 miNE (50°)17.3 mph
12:30 PM41.0 °F28.4 °F61 %29.92 in5.6 miNE (50°)17.3 mph
1:00 PM41.0 °F26.6 °F57 %29.92 in6.2 miNE (40°)18.4 mphPartly Cloudy
1:30 PM42.8 °F28.4 °F57 %29.89 in5.6 miNE (40°)17.3 mphPartly Cloudy
2:00 PM41.0 °F28.4 °F61 %29.89 in6.2 miNE (40°)19.6 mph
2:30 PM41.0 °F28.4 °F61 %29.89 in6.2 miNE (40°)18.4 mphPartly Cloudy
3:00 PM41.0 °F28.4 °F61 %29.89 in5.6 miNE (40°)19.6 mphPartly Cloudy
3:30 PM41.0 °F28.4 °F61 %29.89 in5.0 miNNE (30°)19.6 mph
4:00 PM41.0 °F28.4 °F61 %29.89 in5.6 miNE (40°)18.4 mphScattered Clouds
4:30 PM41.0 °F26.6 °F57 %29.89 in5.6 miNE (40°)18.4 mphMostly Cloudy
5:00 PM41.0 °F26.6 °F57 %29.89 in5.0 miNE (40°)18.4 mphMostly Cloudy
5:30 PM39.2 °F28.4 °F65 %29.89 in5.0 miNE (40°)18.4 mphMostly Cloudy
6:00 PM41.0 °F30.2 °F65 %29.89 in5.0 miNE (40°)18.4 mphMostly Cloudy
6:30 PM41.0 °F30.2 °F65 %29.86 in5.0 miNNE (30°)18.4 mphMostly Cloudy
7:00 PM39.2 °F30.2 °F70 %29.86 in5.0 miNE (40°)17.3 mphMostly Cloudy
7:30 PM39.2 °F30.2 °F70 %29.86 in4.3 miNE (40°)17.3 mphPartly Cloudy
8:00 PM39.2 °F32.0 °F75 %29.86 in4.3 miNE (40°)15.0 mph
8:30 PM37.4 °F30.2 °F75 %29.86 in4.3 miNE (40°)13.8 mph
9:00 PM37.4 °F32.0 °F81 %29.86 in3.1 miNE (40°)13.8 mphMist
9:30 PM37.4 °F32.0 °F81 %29.86 in3.1 miNE (40°)13.8 mphMist
10:00 PM37.4 °F32.0 °F81 %29.86 in3.1 miNE (40°)16.1 mphMist
10:30 PM37.4 °F32.0 °F81 %29.86 in3.1 miNE (50°)13.8 mphOvercast
11:00 PM37.4 °F32.0 °F81 %29.86 in3.1 miNE (50°)13.8 mphRainLight Rain
11:30 PM37.4 °F32.0 °F81 %29.86 inNE (40°)12.7 mphRainLight Rain
Hourly data recorded from LFOH, located miles away from Le Havre, France







STORIES FROM OUR PARTNERS